SCP
0 0 0 0 0 0 0 0 0 0 0 0 0 1 1 0 0 0 0 0 0 0 0 0 0 0 0 0 1 1 0 0 1 1 1 1 1 2
0 0 0 0 0 0 0 0 0 0 0 0 0 1 1 0 0 0 0 0 0 0 0 0 0 0 0 0 0 0 0 0 0 1 1 1 1 1
0 0 0 0 0 0 0 0 0 0 0 0 0 1 0 0 0 0 0 0 0 0 0 0 0 0 0 0 0 0 0 0 0 0 0 1 1 1
0 0 0 0 0 0 0 0 0 0 0 0 0 0 0 0 0 0 0 0 0 0 0 0 0 0 0 0 0 0 0 0 0 0 0 0 1 1
0 0 0 0 0 0 0 0 0 0 0 0 0 0 0 0 0 0 0 0 0 0 0 0 0 0 0 0 0 0 0 0 0 0 0 0 0 0
0 0 0 0 0 0 0 0 0 0 0 0 0 0 0 0 0 0 0 0 0 0 0 0 0 0 0 0 0 0 0 0 0 0 0 0 0 0
0 0 0 0 0 0 0 0 0 0 0 0 0 0 0 0 0 0 0 0 0 0 0 0 0 0 0 0 0 0 0 0 0 0 0 0 0 0
0 0 0 0 0 0 0 0 0 0 0 0 0 0 0 0 0 0 0 0 0 0 0 0 0 0 0 0 0 0 0 0 0 0 0 0 0 0
0 0 0 0 0 0 0 0 0 0 0 0 0 0 0 0 0 0 0 0 0 0 0 0 0 0 0 0 0 0 0 0 0 0 0 0 0 0
0 0 0 0 0 0 0 0 0 0 0 0 0 0 0 0 0 0 0 0 0 0 0 0 0 0 0 0 0 0 0 0 0 0 0 0 0 0
0 0 0 0 0 0 0 0 0 0 0 0 0 0 0 0 0 0 0 0 0 0 0 0 0 0 0 0 0 0 0 0 0 0 0 0 0 0
0 0 0 0 0 0 0 0 0 0 0 0 0 0 0 0 0 0 0 0 0 0 0 0 0 0 0 0 0 0 0 0 0 0 0 0 0 0
0 0 0 0 0 0 0 0 0 0 0 0 0 0 0 0 0 0 0 0 0 0 0 0 0 0 0 0 0 0 0 0 0 0 0 0 0 0
0 0 0 0 0 0 0 0 0 0 0 0 0 0 0 0 0 0 0 0 0 0 0 0 0 0 0 0 0 0 0 0 0 0 0 0 0 0
0 0 0 0 0 0 0 0 0 0 0 0 0 0 0 0 0 0 0 0 0 0 0 0 0 0 0 0 0 0 0 0 0 0 0 0 0 0
0 0 0 0 0 0 0 0 0 0 0 0 0 0 0 0 0 0 0 0 0 0 0 0 0 0 0 0 0 0 0 0 0 0 0 0 0 0
0 0 0 0 0 0 0 0 0 0 0 0 0 0 0 0 0 0 0 0 0 0 0 0 0 0 0 0 0 0 0 0 0 0 0 0 0 0
0 0 0 0 0 0 0 0 0 0 0 0 0 0 0 0 0 0 0 0 0 0 0 0 0 0 0 0 0 0 0 0 1 0 0 0 0 1
0 0 0 0 0 0 0 0 0 0 0 0 0 0 0 0 0 0 0 0 0 0 0 0 0 0 0 0 0 0 0 0 1 1 1 0 0 0
0 0 0 0 0 0 0 0 0 0 0 0 0 0 0 0 0 0 0 0 0 0 0 0 0 0 0 0 0 0 0 0 1 1 1 0 0 0
0 0 0 0 0 0 0 0 0 0 0 0 0 0 0 0 0 0 0 0 0 0 0 0 0 0 0 0 0 0 0 0 0 0 0 0 0 0
0 0 0 0 0 0 0 0 0 0 0 0 0 0 0 0 0 0 0 0 0 0 0 0 0 0 0 0 0 0 0 0 0 0 0 0 0 0
0 0 0 0 0 0 0 0 0 0 0 0 0 0 0 0 0 0 0 0 0 0 0 0 0 0 0 0 0 0 0 0 0 0 0 0 0 0
Wind_Speed
2 3 2 2 2 3 3 3 3 3 4 3 2 3 3 3 5 4 5 7 8 8 9 10 10 10 11 10 10 11 11 10 11 11 12 13 13 14
2 2 2 2 2 2 2 2 3 3 4 3 3 3 4 4 4 4 5 7 8 7 8 8 9 9 10 10 11 11 11 11 12 12 12 12 13 13
2 2 3 3 2 2 2 2 2 3 4 4 3 3 3 4 4 4 4 4 4 6 7 7 8 8 9 9 10 10 11 12 12 12 13 12 12 12
3 3 3 2 2 2 2 2 3 3 3 5 4 3 4 4 4 5 4 3 4 5 6 6 6 7 7 8 8 9 9 10 12 12 12 12 12 12
3 3 3 3 3 2 2 3 2 3 3 4 4 3 3 3 3 4 4 3 4 4 5 5 6 7 7 7 8 9 9 9 10 11 11 12 11 11
2 3 3 3 4 3 3 3 3 3 3 3 4 4 3 3 2 3 3 3 3 3 3 4 4 6 7 7 8 9 9 10 10 11 11 11 11 11
3 3 3 4 4 3 3 3 3 3 3 3 4 4 4 3 3 3 3 4 4 2 2 3 3 3 4 6 7 9 9 10 11 11 12 12 12 11
3 4 4 4 5 5 5 5 4 4 4 4 4 5 5 5 4 4 3 3 3 2 2 4 3 4 4 4 6 8 9 10 11 11 12 12 12 12
3 4 4 4 4 4 6 7 6 6 6 5 6 6 6 5 4 5 4 4 4 3 2 4 3 4 4 4 7 8 9 9 9 10 11 11 11 12
3 4 4 5 5 5 5 6 6 5 5 5 6 7 6 5 5 5 5 5 5 4 3 4 3 4 4 4 6 7 8 8 9 9 10 10 11 11
4 3 4 5 7 6 4 5 6 6 5 6 6 7 7 6 4 3 3 2 3 3 2 3 3 3 3 4 4 6 7 8 9 9 10 10 10 10
4 4 4 5 7 6 4 4 6 6 6 7 5 5 4 4 4 4 3 3 3 3 2 2 2 2 3 2 3 3 4 6 8 8 9 9 9 7
3 4 4 7 7 7 5 4 6 6 6 5 5 4 3 3 2 3 3 4 4 4 3 2 3 2 3 3 3 3 3 3 3 4 6 8 9 8
3 4 5 8 8 8 5 5 6 5 3 3 3 3 3 3 3 3 4 4 5 6 5 4 3 3 3 4 4 3 2 2 3 3 3 5 7 9
3 5 7 8 7 5 5 6 4 3 2 3 3 4 4 4 4 3 3 3 4 4 4 4 5 4 4 4 4 4 3 2 3 3 3 3 3 4
3 5 6 6 5 4 5 4 3 2 2 2 3 4 4 3 3 3 3 3 3 3 3 3 4 4 4 5 4 4 4 3 2 2 2 3 3 4
3 3 3 4 5 4 4 4 3 3 3 3 3 4 4 4 4 3 3 3 3 4 4 3 3 3 4 4 4 4 4 3 3 3 2 3 3 4
2 3 4 4 5 5 5 4 4 4 4 3 4 4 4 4 4 4 3 3 3 4 4 3 2 2 2 2 4 4 3 3 3 3 3 3 4 3
2 3 4 4 4 4 4 4 4 5 4 4 4 4 4 4 4 4 4 4 4 4 4 3 3 2 3 4 3 4 4 3 2 2 3 3 4 3
2 3 4 4 4 4 4 4 4 4 4 4 4 4 4 4 4 4 4 5 4 4 4 4 3 3 3 4 4 3 3 3 2 3 2 2 3 3
4 4 4 4 4 4 4 4 4 4 5 4 4 5 4 4 4 4 4 5 4 4 5 5 5 5 3 2 3 3 3 2 3 2 2 2 2 2
4 4 4 4 4 4 4 4 4 4 5 4 4 5 4 4 4 5 4 4 4 4 5 5 5 4 2 2 3 4 4 3 2 3 3 3 2 2
4 4 4 4 4 3 3 4 4 4 4 5 5 5 5 5 4 4 4 4 4 5 5 5 4 3 3 2 3 3 5 4 2 2 2 2 4 4
Wind_Direction
254 252 251 257 247 244 236 223 231 269 278 267 262 267 266 267 276 273 267 267 264 260 255 250 245 243 242 240 236 233 230 229 231 230 233 234 233 231
259 265 272 264 258 249 245 240 230 240 262 260 251 270 279 280 279 273 269 277 271 268 262 255 248 244 242 241 238 235 230 227 227 228 229 230 229 229
288 279 281 275 275 273 259 247 242 234 257 274 258 271 271 278 289 283 275 270 275 272 267 260 251 247 244 240 237 234 231 229 229 230 231 228 226 225
293 292 291 293 285 279 270 262 252 237 241 269 275 271 262 275 286 287 285 282 277 276 266 260 250 246 243 239 234 231 231 232 231 229 227 225 224 223
291 291 290 294 291 287 280 274 267 259 241 253 272 270 270 278 292 293 290 285 285 278 264 257 252 247 244 242 236 231 229 230 231 229 226 225 223 221
293 292 291 277 268 274 277 274 268 267 262 262 272 273 268 275 272 279 294 296 295 292 282 274 264 256 249 243 239 234 229 227 227 227 223 222 222 220
311 309 300 294 282 269 271 272 271 267 271 272 274 272 274 274 269 260 271 288 287 269 281 279 273 270 263 248 240 236 232 228 225 224 221 218 218 217
309 313 309 304 302 297 290 284 271 261 265 264 269 271 271 267 264 261 265 279 284 262 263 279 267 268 266 255 241 238 235 230 225 221 220 218 217 216
293 300 305 312 315 307 301 299 289 276 256 250 260 264 266 260 260 265 257 254 262 266 254 271 266 268 268 259 243 241 240 234 226 220 217 217 218 217
295 292 297 306 309 310 308 307 300 292 278 264 258 263 265 264 252 254 260 263 268 262 234 256 270 271 278 270 251 244 242 236 229 223 217 216 217 218
312 313 303 302 308 317 312 308 310 308 297 287 276 273 273 271 257 247 250 251 273 275 229 239 269 277 276 267 257 243 243 240 233 226 220 216 215 215
322 322 317 314 317 323 312 306 308 310 319 322 315 306 292 284 258 230 233 241 263 271 227 225 259 274 280 264 266 264 250 245 239 234 228 220 211 206
320 323 325 328 323 321 314 291 287 299 306 309 311 313 311 306 295 267 240 233 246 257 245 218 242 246 257 284 289 272 251 250 247 238 227 219 208 199
310 316 319 325 326 326 323 317 317 319 315 319 320 321 318 312 304 294 272 254 249 255 260 239 240 241 251 267 277 277 261 251 245 250 244 219 214 211
311 315 320 324 327 330 339 343 343 341 333 330 322 314 304 296 301 304 301 289 278 266 260 245 242 248 245 254 260 263 271 263 238 237 237 225 215 205
329 327 330 335 339 333 338 349 353 344 328 313 313 312 316 320 321 321 316 319 309 297 278 261 248 240 246 251 251 259 255 253 246 239 239 239 227 217
329 340 351 349 351 351 349 348 349 351 343 331 323 321 321 323 321 322 316 315 306 302 305 302 281 264 251 249 253 255 255 254 247 240 233 249 247 228
7 349 341 341 342 342 342 343 345 343 334 329 326 320 318 318 319 326 331 322 313 305 308 311 308 299 293 271 241 253 258 261 263 246 230 242 256 240
14 338 331 330 333 336 340 338 334 334 331 330 327 327 329 329 328 328 332 331 325 320 319 320 318 305 299 305 295 234 251 266 263 252 231 233 251 254
347 334 331 330 333 337 337 336 334 337 344 342 339 339 337 332 329 330 333 332 326 323 326 331 328 319 295 293 298 299 261 258 255 257 247 235 252 259
343 341 338 335 334 334 335 338 339 341 345 344 342 338 334 329 326 329 331 329 327 328 327 324 319 311 298 293 297 304 312 275 252 250 250 241 245 248
341 339 339 338 335 334 336 341 344 344 344 342 336 332 329 326 324 324 326 327 328 326 321 320 324 330 338 324 315 312 317 327 310 258 252 239 242 245
339 339 340 339 335 331 335 343 345 342 339 334 329 327 328 327 325 324 325 325 324 325 326 327 334 337 334 322 316 313 315 320 324 328 318 288 247 254